Regional Weather Roundup
Issued by NWS

Home | Current Version | Previous Version | Text Only | Print | Product List | Glossary Off
Versions: 1 2 3 4 5 6 7 8 9 10 11 12 13 14 15 16 17 18 19 20 21 22 23 24 25 26 27 28 29 30 31 32 33 34 35 36 37 38 39 40 41 42 43 44 45 46 47 48 49 50

000
ASUS45 KCYS 221810
RWRWY

WYOMING REGIONAL WEATHER ROUNDUP
NATIONAL WEATHER SERVICE CHEYENNE WY
1100 AM MST SAT NOV 22 2014

NOTE:  "FAIR" INDICATES FEW OR NO CLOUDS BELOW 12,000 FEET
WITH NO SIGNIFICANT WEATHER AND/OR OBSTRUCTIONS TO VISIBILITY.

WYZ001-221900-
YELLOWSTONE NATIONAL PARK

CITY           SKY/WX    TMP DP  RH WIND       PRES   REMARKS
LK YELLOWSTONE   N/A     32  28  85 VRB3      29.59F
6HR MIN TEMP:  27; 6HR MAX TEMP:  32; 6HR PCP:  0.13;

W YELLOWSTONE  NOT AVBL

$$
WYZ002>013-054>058-071-098>099-221900-
NORTHERN WYOMING

CITY           SKY/WX    TMP DP  RH WIND       PRES   REMARKS
JACKSON        HVY SNOW  32  32 100 S23G29    29.64F VSB 1/4 WCI  19
CODY           MOSUNNY   45  28  53 SW18G28   29.48S
GREYBULL       SUNNY     31  21  66 N5        29.52F WCI  26
6HR MIN TEMP:  13; 6HR MAX TEMP:  31;

WORLAND        SUNNY     36  27  69 SE6       29.52F WCI  31
6HR MIN TEMP:  14; 6HR MAX TEMP:  36; 6HR PCP: TRACE;

SHERIDAN       PTSUNNY   59  24  26 SW9G23    29.40F
6HR MIN TEMP:  23; 6HR MAX TEMP:  59;

BUFFALO        CLOUDY    52  27  38 S14       29.46R
6HR MIN TEMP:  33; 6HR MAX TEMP:  52;

GILLETTE       CLOUDY    42  27  55 SW22G32   29.45F
6HR MIN TEMP:  37; 6HR MAX TEMP:  43;

HULETT           N/A    N/A N/A N/A MISG        N/A
NEWCASTLE      FAIR      43  25  49 CALM      29.56F

$$
WYZ014>020-022>026-101>103-221900-
CENTRAL WYOMING

CITY           SKY/WX    TMP DP  RH WIND       PRES   REMARKS
BIG PINEY      CLOUDY    42  29  59 S3        29.76S
6HR MIN TEMP:  18; 6HR MAX TEMP:  47; 6HR PCP: TRACE;

PINEDALE       LGT SNOW  30  30 100 SE14      29.75F WCI  20
DUBOIS         LGT SNOW  36  27  69 W29G41    29.55F WCI  23
LANDER         NOT AVBL
RIVERTON       CLOUDY    35  22  58 S9        29.61F WCI  28
6HR MIN TEMP:  24; 6HR MAX TEMP:  36;

CASPER         CLOUDY    44  21  40 SW29G38   29.63F
6HR MIN TEMP:  39; 6HR MAX TEMP:  45;

DOUGLAS        NOT AVBL

$$
WYZ021-027>030-104>119-221900-
SOUTHERN WYOMING

CITY           SKY/WX    TMP DP  RH WIND       PRES   REMARKS
EVANSTON       HVY SNOW  33  32  96 SW24G31   29.83F VSB<1/4 WCI  20
6HR MIN TEMP:  32; 6HR MAX TEMP:  39; 6HR PCP: TRACE;

KEMMERER       LGT SNOW  32  32 100 SW23G30   29.79F VSB 3/4 WCI  19
FORT BRIDGER   LGT SNOW  36  32  85 W28G40    29.83R WCI  24
ROCK SPRINGS   CLOUDY    37  21  52 NW9       29.80S WCI  30
6HR MIN TEMP:  30; 6HR MAX TEMP:  41;

DIXON          FAIR      47  19  33 S21G33    29.86S
RAWLINS        MOSUNNY   44  19  36 SW32G48   29.76F
6HR MIN TEMP:  34; 6HR MAX TEMP:  44;

SARATOGA       CLOUDY    43  21  42 SE12      29.80F
LARAMIE        MOSUNNY   41  20  43 S14       29.74R
6HR MIN TEMP:  35; 6HR MAX TEMP:  44;

CHEYENNE       CLOUDY    48  15  26 SW12      29.66F
6HR MIN TEMP:  25; 6HR MAX TEMP:  48;

TORRINGTON     CLOUDY    57  21  24 W29G43    29.60F
6HR MIN TEMP:  24; 6HR MAX TEMP:  60;

PINE BLUFFS    FAIR      52  14  22 SW13      29.66F

$$


USA.gov is the U.S. government's official web portal to all federal, state and local government web resources and services.